Date String (YYYY-MM-DD hh:mm:ss) UTC,Instrument flags,Ambient pressure (hPa),Sample flow (lpm),Bypass flow (lpm),Sample temperature (°C),Ambient temperature (°C),ASC tube jacket temperature (°C),LED temperature (°C),Box temperature (°C),Sample RH (%),Span deviation,Mass concentration (μg/m³),Mass concentration (μg/m³),Mass concentration (μg/m³)
DateTimeUTC,F1_M11,P_M11,Q1_M11,Q2_M11,T1_M11,T2_M11,T3_M11,T4_M11,T5_M11,U1_M11,ZSPAN_M11,X0_M11,X2_M11,X1_M11
2023-04-22 07:00:00,,0833.8,5.00,0.00,22.6,21.0,00.0,31.0,24.1,18.3,0000.0,0006.48,0003.62,0003.04
2023-04-22 07:01:00,,0833.8,5.00,0.00,22.6,21.0,00.0,31.0,24.1,18.3,0000.0,0006.45,0003.60,0003.05
2023-04-22 07:02:00,,0833.8,5.00,0.00,22.6,21.0,00.0,31.0,24.1,18.3,0000.0,0006.21,0003.58,0003.06
2023-04-22 07:03:00,,0833.8,5.00,0.00,22.6,21.0,00.0,31.0,24.1,18.3,0000.0,0006.17,0003.58,0003.07
2023-04-22 07:04:00,,0833.8,5.00,0.00,22.5,21.0,00.0,31.0,24.1,18.3,0000.0,0006.18,0003.61,0003.08
2023-04-22 07:05:00,,0833.8,5.00,0.00,22.5,20.9,00.0,31.0,24.1,18.4,0000.0,0006.10,0003.60,0003.08
2023-04-22 07:06:00,,0833.8,5.00,0.00,22.5,20.9,00.0,31.0,24.1,18.4,0000.0,0006.51,0003.60,0003.08
2023-04-22 07:07:00,,0833.8,5.00,0.00,22.5,20.9,00.0,31.0,24.1,18.3,0000.0,0006.69,0003.62,0003.08
2023-04-22 07:08:00,,0833.8,5.01,0.00,22.5,21.0,00.0,30.9,24.2,18.3,0000.0,0006.66,0003.62,0003.08
2023-04-22 07:09:00,,0833.8,5.02,0.00,22.6,21.6,00.0,30.8,24.5,18.2,0000.0,0006.74,0003.63,0003.09
2023-04-22 07:10:00,,0833.8,4.99,0.00,22.7,22.5,00.0,30.8,24.8,18.2,0000.0,0007.02,0003.62,0003.10
2023-04-22 07:11:00,,0833.8,5.00,0.00,22.8,22.6,00.0,30.9,24.7,18.1,0000.0,0007.09,0003.62,0003.10
2023-04-22 07:12:00,,0833.8,5.01,0.00,22.8,22.5,00.0,31.0,24.6,18.0,0000.0,0007.19,0003.64,0003.11
2023-04-22 07:13:00,,0833.8,5.00,0.00,22.8,22.3,00.0,31.0,24.6,18.0,0000.0,0007.35,0003.67,0003.11
2023-04-22 07:14:00,,0833.8,4.99,0.00,22.8,22.1,00.0,31.0,24.5,18.0,0000.0,0007.24,0003.67,0003.12
2023-04-22 07:15:00,,0833.8,5.00,0.00,22.8,21.9,00.0,31.1,24.5,18.0,0000.0,0007.09,0003.64,0003.12
2023-04-22 07:16:00,,0833.8,5.01,0.00,22.8,21.8,00.0,31.1,24.4,18.0,0000.0,0006.94,0003.64,0003.12
2023-04-22 07:17:00,,0833.8,5.00,0.00,22.8,21.6,00.0,31.1,24.4,18.0,0000.0,0006.71,0003.66,0003.12
2023-04-22 07:18:00,,0833.7,5.00,0.00,22.8,21.5,00.0,31.1,24.4,18.0,0000.0,0006.66,0003.65,0003.13
2023-04-22 07:19:00,,0833.8,5.00,0.00,22.8,21.4,00.0,31.1,24.4,18.0,0000.0,0006.89,0003.67,0003.14
2023-04-22 07:20:00,,0833.8,5.00,0.00,22.8,21.3,00.0,31.1,24.3,18.1,0000.0,0006.89,0003.67,0003.13
2023-04-22 07:21:00,,0833.7,5.00,0.00,22.8,21.3,00.0,31.1,24.3,18.1,0000.0,0006.96,0003.64,0003.13
2023-04-22 07:22:00,,0833.7,5.00,0.00,22.8,21.2,00.0,31.1,24.3,18.1,0000.0,0007.01,0003.62,0003.13
2023-04-22 07:23:00,,0833.8,5.00,0.00,22.7,21.2,00.0,31.1,24.3,18.1,0000.0,0007.15,0003.59,0003.12
2023-04-22 07:24:00,,0833.8,5.00,0.00,22.7,21.2,00.0,31.1,24.3,18.1,0000.0,0006.94,0003.56,0003.13
2023-04-22 07:25:00,,0833.8,5.00,0.00,22.7,21.2,00.0,31.1,24.3,18.1,0000.0,0007.08,0003.56,0003.12
2023-04-22 07:26:00,,0833.8,5.00,0.00,22.7,21.1,00.0,31.1,24.3,18.1,0000.0,0007.20,0003.58,0003.12
2023-04-22 07:27:00,,0833.8,5.00,0.00,22.7,21.1,00.0,31.1,24.3,18.2,0000.0,0007.22,0003.59,0003.12
2023-04-22 07:28:00,,0833.8,5.00,0.00,22.7,21.1,00.0,31.1,24.3,18.6,0000.0,0006.95,0003.57,0003.12
2023-04-22 07:29:00,,0833.8,5.00,0.00,22.7,21.1,00.0,31.1,24.2,18.4,0000.0,0006.97,0003.58,0003.12
2023-04-22 07:30:00,,0833.8,5.00,0.00,22.7,21.1,00.0,31.1,24.3,18.4,0000.0,0006.81,0003.56,0003.12
2023-04-22 07:31:00,,0833.9,5.00,0.00,22.7,21.1,00.0,31.1,24.2,18.4,0000.0,0006.79,0003.56,0003.11
2023-04-22 07:32:00,,0833.9,4.99,0.00,22.7,21.1,00.0,31.1,24.2,18.4,0000.0,0006.37,0003.57,0003.11
2023-04-22 07:33:00,,0833.8,4.99,0.00,22.6,21.1,00.0,31.1,24.2,18.4,0000.0,0006.03,0003.56,0003.12
2023-04-22 07:34:00,,0833.8,5.01,0.00,22.6,21.0,00.0,31.0,24.2,18.4,0000.0,0005.72,0003.56,0003.11
2023-04-22 07:35:00,,0833.9,5.01,0.00,22.6,21.0,00.0,31.0,24.2,18.4,0000.0,0005.76,0003.57,0003.10
2023-04-22 07:36:00,,0833.9,5.00,0.00,22.6,21.0,00.0,31.0,24.1,18.4,0000.0,0005.78,0003.56,0003.11
2023-04-22 07:37:00,,0833.8,4.99,0.00,22.6,20.9,00.0,31.0,24.1,18.4,0000.0,0005.99,0003.58,0003.11
2023-04-22 07:38:00,,0833.9,4.99,0.00,22.6,20.9,00.0,31.0,24.1,18.4,0000.0,0006.23,0003.62,0003.12
2023-04-22 07:39:00,,0833.8,5.00,0.00,22.6,20.9,00.0,31.0,24.1,18.4,0000.0,0006.34,0003.64,0003.14
2023-04-22 07:40:00,,0833.8,5.01,0.00,22.5,20.9,00.0,31.0,24.1,18.3,0000.0,0006.28,0003.65,0003.14
2023-04-22 07:41:00,,0833.9,5.00,0.00,22.5,20.9,00.0,31.0,24.1,18.3,0000.0,0006.34,0003.69,0003.16
2023-04-22 07:42:00,,0833.8,5.00,0.00,22.5,20.9,00.0,31.0,24.1,18.3,0000.0,0006.34,0003.71,0003.19
2023-04-22 07:43:00,,0833.9,5.01,0.00,22.5,20.9,00.0,31.0,24.1,18.3,0000.0,0006.27,0003.71,0003.21
2023-04-22 07:44:00,,0833.9,5.01,0.00,22.5,20.9,00.0,30.9,24.1,18.3,0000.0,0006.59,0003.76,0003.24
2023-04-22 07:45:00,,0834.0,5.00,0.00,22.5,21.0,00.0,30.9,24.1,18.2,0000.0,0006.68,0003.80,0003.27
2023-04-22 07:46:00,,0834.0,5.00,0.00,22.6,21.6,00.0,30.8,24.4,18.1,0000.0,0006.67,0003.85,0003.31
2023-04-22 07:47:00,,0834.0,4.98,0.00,22.7,22.6,00.0,30.8,24.7,17.8,0000.0,0006.73,0003.89,0003.35
2023-04-22 07:48:00,,0834.0,5.01,0.00,22.8,23.0,00.0,30.9,24.8,17.6,0000.0,0006.55,0003.91,0003.38
2023-04-22 07:49:00,,0834.0,5.01,0.00,22.8,22.8,00.0,31.0,24.7,17.4,0000.0,0006.39,0003.90,0003.41
2023-04-22 07:50:00,,0833.9,4.99,0.00,22.8,22.5,00.0,31.0,24.5,17.4,0000.0,0006.53,0003.95,0003.43
2023-04-22 07:51:00,,0834.0,5.00,0.00,22.8,22.3,00.0,31.0,24.4,17.3,0000.0,0006.56,0003.98,0003.46
2023-04-22 07:52:00,,0834.0,5.00,0.00,22.8,22.1,00.0,31.1,24.4,17.3,0000.0,0006.68,0004.01,0003.48
2023-04-22 07:53:00,,0833.9,5.00,0.00,22.8,21.9,00.0,31.1,24.3,17.3,0000.0,0007.26,0004.05,0003.51
2023-04-22 07:54:00,,0833.9,5.00,0.00,22.8,21.7,00.0,31.1,24.3,17.2,0000.0,0008.04,0004.11,0003.54
2023-04-22 07:55:00,,0833.9,5.00,0.00,22.7,21.5,00.0,31.1,24.2,17.3,0000.0,0008.06,0004.16,0003.56
2023-04-22 07:56:00,,0833.9,5.00,0.00,22.7,21.4,00.0,31.1,24.2,17.3,0000.0,0008.17,0004.22,0003.59
2023-04-22 07:57:00,,0833.9,4.99,0.00,22.7,21.4,00.0,31.1,24.2,17.3,0000.0,0008.25,0004.26,0003.61
2023-04-22 07:58:00,,0833.8,4.99,0.00,22.7,21.3,00.0,31.1,24.2,17.3,0000.0,0008.33,0004.29,0003.62
2023-04-22 07:59:00,,0833.8,5.00,0.00,22.7,21.3,00.0,31.1,24.2,17.2,0000.0,0008.34,0004.30,0003.64
